| time (UTC) | temp F | wind direction | speed MPH | gust MPH | rain 1hr in | rain 24hr in | rain mn in | humidity % | barometer mb |
| 20260903061503 | 82 | 180 | 4.0 | 7.0 | 0.00 | 0.00 | 0.00 | 83 | 1013.0 |
| 20260903061003 | 82 | 172 | 4.0 | 7.0 | 0.00 | 0.00 | 0.00 | 83 | 1013.1 |
| 20260903060503 | 82 | 167 | 3.0 | 7.0 | 0.00 | 0.00 | 0.00 | 83 | 1013.1 |
| 20260903060003 | 82 | 157 | 3.0 | 7.0 | 0.00 | 0.00 | 0.00 | 82 | 1013.2 |
| 20260903055503 | 82 | 149 | 2.0 | 5.0 | 0.00 | 0.00 | 0.00 | 82 | 1013.3 |
| 20260903055024 | 82 | 154 | 3.0 | 7.0 | 0.00 | 0.00 | 0.00 | 82 | 1013.3 |
| 20260903054524 | 82 | 161 | 3.0 | 11.0 | 0.00 | 0.00 | 0.00 | 81 | 1013.4 |
| 20260903054003 | 82 | 163 | 3.0 | 11.0 | 0.00 | 0.00 | 0.00 | 81 | 1013.3 |
| 20260903053503 | 82 | 150 | 2.0 | 7.0 | 0.00 | 0.00 | 0.00 | 81 | 1013.3 |
| 20260903053025 | 82 | 148 | 3.0 | 9.0 | 0.00 | 0.00 | 0.00 | 80 | 1013.3 |
| 20260903052504 | 83 | 146 | 4.0 | 9.0 | 0.00 | 0.00 | 0.00 | 80 | 1013.3 |
| 20260903052025 | 83 | 140 | 3.0 | 8.0 | 0.00 | 0.00 | 0.00 | 80 | 1013.3 |
| 20260903051503 | 83 | 139 | 3.0 | 7.0 | 0.00 | 0.00 | 0.00 | 79 | 1013.2 |
| 20260903051004 | 83 | 151 | 4.0 | 9.0 | 0.00 | 0.00 | 0.00 | 79 | 1013.1 |
| 20260903050504 | 83 | 157 | 5.0 | 12.0 | 0.00 | 0.00 | 0.00 | 79 | 1013.1 |
| 20260903050004 | 83 | 154 | 5.0 | 12.0 | 0.00 | 0.00 | 0.00 | 79 | 1012.9 |
| 20260903045503 | 83 | 152 | 4.0 | 8.0 | 0.00 | 0.00 | 0.00 | 79 | 1012.8 |
| 20260903045003 | 83 | 155 | 4.0 | 9.0 | 0.00 | 0.00 | 0.00 | 78 | 1012.8 |
| 20260903044503 | 84 | 151 | 4.0 | 9.0 | 0.00 | 0.00 | 0.00 | 77 | 1012.7 |
| 20260903044004 | 84 | 144 | 4.0 | 9.0 | 0.00 | 0.00 | 0.00 | 77 | 1012.7 |
| 20260903043503 | 84 | 145 | 5.0 | 10.0 | 0.00 | 0.00 | 0.00 | 76 | 1012.7 |
| 20260903043025 | 84 | 149 | 5.0 | 11.0 | 0.00 | 0.00 | 0.00 | 75 | 1012.6 |
| 20260903042504 | 84 | 152 | 5.0 | 11.0 | 0.00 | 0.00 | 0.00 | 74 | 1012.5 |
| 20260903042004 | 85 | 158 | 6.0 | 14.0 | 0.00 | 0.00 | 0.00 | 73 | 1012.4 |
| 20260903041504 | 85 | 168 | 7.0 | 17.0 | 0.00 | 0.00 | 0.00 | 72 | 1012.5 |
| 20260903041003 | 85 | 166 | 7.0 | 17.0 | 0.00 | 0.00 | 0.00 | 71 | 1012.3 |
| 20260903040525 | 85 | 162 | 6.0 | 12.0 | 0.00 | 0.00 | 0.00 | 71 | 1012.2 |
| 20260903040004 | 86 | 162 | 6.0 | 12.0 | 0.00 | 0.00 | 0.00 | 69 | 1012.1 |
| 20260903035503 | 86 | 159 | 8.0 | 16.0 | 0.00 | 0.00 | 0.00 | 68 | 1012.1 |
| 20260903035003 | 86 | 161 | 7.0 | 16.0 | 0.00 | 0.00 | 0.00 | 67 | 1012.0 |
| 20260903034504 | 86 | 170 | 7.0 | 17.0 | 0.00 | 0.00 | 0.00 | 65 | 1012.0 |
| 20260903034004 | 87 | 170 | 8.0 | 17.0 | 0.00 | 0.00 | 0.00 | 64 | 1012.0 |
| 20260903033503 | 87 | 169 | 8.0 | 15.0 | 0.00 | 0.00 | 0.00 | 64 | 1012.1 |
| 20260903033003 | 87 | 171 | 8.0 | 20.0 | 0.00 | 0.00 | 0.00 | 62 | 1012.1 |
| 20260903032504 | 88 | 176 | 8.0 | 20.0 | 0.00 | 0.00 | 0.00 | 61 | 1011.9 |
| 20260903032003 | 88 | 176 | 7.0 | 15.0 | 0.00 | 0.00 | 0.00 | 59 | 1011.8 |
| 20260903031504 | 89 | 162 | 6.0 | 11.0 | 0.00 | 0.00 | 0.00 | 59 | 1011.8 |
| 20260903031004 | 89 | 157 | 6.0 | 11.0 | 0.00 | 0.00 | 0.00 | 59 | 1011.8 |
| 20260903030503 | 90 | 163 | 7.0 | 13.0 | 0.00 | 0.00 | 0.00 | 59 | 1011.6 |
| 20260903030004 | 90 | 163 | 8.0 | 13.0 | 0.00 | 0.00 | 0.00 | 59 | 1011.5 |
| 20260903025503 | 90 | 160 | 7.0 | 16.0 | 0.00 | 0.00 | 0.00 | 58 | 1011.4 |
| 20260903025004 | 91 | 159 | 7.0 | 16.0 | 0.00 | 0.00 | 0.00 | 58 | 1011.3 |
| 20260903024503 | 91 | 160 | 6.0 | 12.0 | 0.00 | 0.00 | 0.00 | 57 | 1011.2 |
| 20260903024003 | 91 | 156 | 6.0 | 11.0 | 0.00 | 0.00 | 0.00 | 57 | 1011.0 |
| 20260903023503 | 92 | 154 | 6.0 | 11.0 | 0.00 | 0.00 | 0.00 | 56 | 1010.9 |
| 20260903023025 | 92 | 157 | 5.0 | 10.0 | 0.00 | 0.00 | 0.00 | 53 | 1010.9 |
| 20260903022504 | 91 | 153 | 4.0 | 10.0 | 0.00 | 0.00 | 0.00 | 51 | 1010.9 |
| 20260903022004 | 91 | 151 | 2.0 | 5.0 | 0.00 | 0.00 | 0.00 | 49 | 1010.8 |
| 20260903021503 | 91 | 156 | 1.0 | 3.0 | 0.00 | 0.00 | 0.00 | 48 | 1010.7 |
| 20260903021003 | 93 | 157 | 0.0 | 2.0 | 0.00 | 0.00 | 0.00 | 46 | 1010.5 |
| 20260903020503 | 93 | 0 | 0.0 | 0.0 | 0.00 | 0.00 | 0.00 | 45 | 1010.3 |
| 20260903020003 | 94 | 0 | 0.0 | 0.0 | 0.00 | 0.00 | 0.00 | 44 | 1010.2 |
| 20260903015525 | 94 | 0 | 0.0 | 0.0 | 0.00 | 0.00 | 0.00 | 44 | 1010.1 |
| 20260903015004 | 94 | 157 | 0.0 | 1.0 | 0.00 | 0.00 | 0.00 | 43 | 1010.1 |
| 20260903014504 | 94 | 157 | 0.0 | 1.0 | 0.00 | 0.00 | 0.00 | 43 | 1010.0 |
| 20260903014003 | 95 | 157 | 0.0 | 1.0 | 0.00 | 0.00 | 0.00 | 42 | 1010.0 |
| 20260903013504 | 95 | 157 | 0.0 | 1.0 | 0.00 | 0.00 | 0.00 | 42 | 1010.1 |
| 20260903013003 | 95 | 157 | 0.0 | 1.0 | 0.00 | 0.00 | 0.00 | 41 | 1010.0 |
| 20260903012504 | 96 | 157 | 0.0 | 2.0 | 0.00 | 0.00 | 0.00 | 41 | 1010.0 |
| 20260903012005 | 96 | 157 | 0.0 | 2.0 | 0.00 | 0.00 | 0.00 | 41 | 1009.8 |
| 20260903011505 | 96 | 157 | 0.0 | 1.0 | 0.00 | 0.00 | 0.00 | 41 | 1009.8 |
| 20260903011005 | 97 | 157 | 0.0 | 2.0 | 0.00 | 0.00 | 0.00 | 40 | 1009.8 |
| 20260903010505 | 97 | 157 | 0.0 | 2.0 | 0.00 | 0.00 | 0.00 | 40 | 1009.9 |
| 20260903010005 | 98 | 157 | 0.0 | 2.0 | 0.00 | 0.00 | 0.00 | 39 | 1009.8 |
| 20260903005505 | 98 | 157 | 1.0 | 2.0 | 0.00 | 0.00 | 0.00 | 39 | 1009.8 |
| 20260903005026 | 98 | 160 | 2.0 | 4.0 | 0.00 | 0.00 | 0.00 | 38 | 1009.7 |
| 20260903004505 | 98 | 178 | 2.0 | 4.0 | 0.00 | 0.00 | 0.00 | 37 | 1009.9 |
| 20260903004005 | 99 | 198 | 3.0 | 6.0 | 0.00 | 0.00 | 0.00 | 37 | 1009.8 |
| 20260903003505 | 99 | 180 | 3.0 | 7.0 | 0.00 | 0.00 | 0.00 | 37 | 1009.8 |
| 20260903003005 | 99 | 172 | 3.0 | 7.0 | 0.00 | 0.00 | 0.00 | 37 | 1009.8 |
| 20260903002505 | 100 | 184 | 3.0 | 7.0 | 0.00 | 0.00 | 0.00 | 37 | 1009.8 |
| 20260903002005 | 100 | 194 | 3.0 | 7.0 | 0.00 | 0.00 | 0.00 | 36 | 1009.7 |
| 20260903001505 | 100 | 217 | 3.0 | 5.0 | 0.00 | 0.00 | 0.00 | 36 | 1009.7 |
| 20260903001005 | 101 | 239 | 3.0 | 6.0 | 0.00 | 0.00 | 0.00 | 36 | 1009.7 |
| 20260903000505 | 101 | 219 | 4.0 | 7.0 | 0.00 | 0.00 | 0.00 | 36 | 1009.7 |
| 20260903000005 | 101 | 202 | 3.0 | 7.0 | 0.00 | 0.00 | 0.00 | 36 | 1009.8 |
| 20260902235505 | 101 | 207 | 3.0 | 6.0 | 0.00 | 0.00 | 0.00 | 36 | 1009.8 |
| 20260902235005 | 101 | 210 | 3.0 | 6.0 | 0.00 | 0.00 | 0.00 | 36 | 1009.9 |
| 20260902234505 | 101 | 217 | 3.0 | 6.0 | 0.00 | 0.00 | 0.00 | 36 | 1009.8 |
| 20260902234005 | 100 | 221 | 3.0 | 5.0 | 0.00 | 0.00 | 0.00 | 36 | 1009.9 |
| 20260902233505 | 100 | 224 | 3.0 | 5.0 | 0.00 | 0.00 | 0.00 | 38 | 1009.8 |
| 20260902233005 | 100 | 224 | 3.0 | 7.0 | 0.00 | 0.00 | 0.00 | 38 | 1009.8 |
| 20260902232505 | 100 | 213 | 3.0 | 7.0 | 0.00 | 0.00 | 0.00 | 37 | 1009.8 |
| 20260902232026 | 100 | 202 | 3.0 | 7.0 | 0.00 | 0.00 | 0.00 | 37 | 1009.9 |
| 20260902231505 | 101 | 194 | 4.0 | 8.0 | 0.00 | 0.00 | 0.00 | 36 | 1009.9 |
| 20260902231005 | 101 | 196 | 5.0 | 10.0 | 0.00 | 0.00 | 0.00 | 35 | 1009.8 |
| 20260902230505 | 102 | 218 | 4.0 | 10.0 | 0.00 | 0.00 | 0.00 | 35 | 1009.9 |
| 20260902230005 | 102 | 208 | 4.0 | 10.0 | 0.00 | 0.00 | 0.00 | 35 | 1009.9 |
| 20260902225505 | 101 | 171 | 3.0 | 9.0 | 0.00 | 0.00 | 0.00 | 36 | 1009.9 |
| 20260902225005 | 101 | 187 | 3.0 | 9.0 | 0.00 | 0.00 | 0.00 | 36 | 1009.9 |
| 20260902224505 | 102 | 232 | 3.0 | 6.0 | 0.00 | 0.00 | 0.00 | 35 | 1009.9 |
| 20260902224005 | 102 | 257 | 4.0 | 10.0 | 0.00 | 0.00 | 0.00 | 34 | 1009.9 |
| 20260902223505 | 103 | 262 | 3.0 | 10.0 | 0.00 | 0.00 | 0.00 | 34 | 1009.9 |
| 20260902223005 | 103 | 254 | 2.0 | 7.0 | 0.00 | 0.00 | 0.00 | 35 | 1009.9 |
| 20260902222505 | 102 | 245 | 2.0 | 6.0 | 0.00 | 0.00 | 0.00 | 36 | 1009.9 |
| 20260902222005 | 101 | 224 | 2.0 | 10.0 | 0.00 | 0.00 | 0.00 | 36 | 1010.0 |
| 20260902221505 | 101 | 203 | 4.0 | 10.0 | 0.00 | 0.00 | 0.00 | 36 | 1010.0 |
| 20260902221026 | 102 | 201 | 4.0 | 11.0 | 0.00 | 0.00 | 0.00 | 35 | 1009.9 |
| 20260902220505 | 102 | 192 | 4.0 | 11.0 | 0.00 | 0.00 | 0.00 | 35 | 1010.1 |
| 20260902220026 | 102 | 156 | 3.0 | 7.0 | 0.00 | 0.00 | 0.00 | 35 | 1010.1 |
| 20260902215505 | 102 | 157 | 3.0 | 8.0 | 0.00 | 0.00 | 0.00 | 35 | 1010.1 |
| 20260902215005 | 102 | 196 | 3.0 | 8.0 | 0.00 | 0.00 | 0.00 | 35 | 1010.1 |
| 20260902214505 | 102 | 234 | 3.0 | 7.0 | 0.00 | 0.00 | 0.00 | 36 | 1010.2 |
| 20260902214026 | 102 | 233 | 3.0 | 7.0 | 0.00 | 0.00 | 0.00 | 35 | 1010.1 |
| 20260902213505 | 102 | 250 | 3.0 | 7.0 | 0.00 | 0.00 | 0.00 | 35 | 1010.3 |
| 20260902213005 | 102 | 257 | 4.0 | 7.0 | 0.00 | 0.00 | 0.00 | 35 | 1010.3 |
| 20260902212505 | 102 | 232 | 3.0 | 9.0 | 0.00 | 0.00 | 0.00 | 36 | 1010.3 |
| 20260902212026 | 102 | 204 | 3.0 | 9.0 | 0.00 | 0.00 | 0.00 | 36 | 1010.4 |
| 20260902211526 | 102 | 180 | 3.0 | 7.0 | 0.00 | 0.00 | 0.00 | 36 | 1010.4 |
| 20260902211026 | 102 | 147 | 3.0 | 7.0 | 0.00 | 0.00 | 0.00 | 36 | 1010.5 |
| 20260902210505 | 103 | 90 | 2.0 | 5.0 | 0.00 | 0.00 | 0.00 | 36 | 1010.5 |
| 20260902210005 | 103 | 38 | 1.0 | 5.0 | 0.00 | 0.00 | 0.00 | 37 | 1010.6 |
| 20260902205527 | 102 | 167 | 1.0 | 5.0 | 0.00 | 0.00 | 0.00 | 37 | 1010.8 |
| 20260902205005 | 101 | 199 | 2.0 | 6.0 | 0.00 | 0.00 | 0.00 | 38 | 1010.9 |
| 20260902204527 | 102 | 310 | 2.0 | 6.0 | 0.00 | 0.00 | 0.00 | 37 | 1011.0 |
| 20260902204005 | 101 | 64 | 2.0 | 5.0 | 0.00 | 0.00 | 0.00 | 38 | 1010.9 |
| 20260902203505 | 101 | 113 | 3.0 | 8.0 | 0.00 | 0.00 | 0.00 | 39 | 1011.0 |
| 20260902203005 | 101 | 125 | 3.0 | 8.0 | 0.00 | 0.00 | 0.00 | 39 | 1011.2 |
| 20260902202505 | 99 | 326 | 2.0 | 4.0 | 0.00 | 0.00 | 0.00 | 40 | 1011.2 |
| 20260902202004 | 99 | 299 | 2.0 | 7.0 | 0.00 | 0.00 | 0.00 | 40 | 1011.3 |
| 20260902201505 | 99 | 283 | 3.0 | 7.0 | 0.00 | 0.00 | 0.00 | 39 | 1011.3 |
| 20260902201026 | 100 | 267 | 2.0 | 6.0 | 0.00 | 0.00 | 0.00 | 38 | 1011.5 |
| 20260902200505 | 100 | 12 | 3.0 | 8.0 | 0.00 | 0.00 | 0.00 | 39 | 1011.6 |
| 20260902200026 | 100 | 291 | 4.0 | 9.0 | 0.00 | 0.00 | 0.00 | 41 | 1011.8 |
| 20260902195505 | 100 | 221 | 5.0 | 12.0 | 0.00 | 0.00 | 0.00 | 40 | 1011.8 |
| 20260902195004 | 99 | 201 | 3.0 | 12.0 | 0.00 | 0.00 | 0.00 | 42 | 1011.9 |
| 20260902194505 | 98 | 201 | 2.0 | 5.0 | 0.00 | 0.00 | 0.00 | 42 | 1012.0 |
| 20260902194005 | 98 | 218 | 2.0 | 5.0 | 0.00 | 0.00 | 0.00 | 44 | 1012.2 |
| 20260902193505 | 98 | 139 | 2.0 | 7.0 | 0.00 | 0.00 | 0.00 | 44 | 1012.3 |
| 20260902193005 | 98 | 160 | 3.0 | 10.0 | 0.00 | 0.00 | 0.00 | 44 | 1012.5 |
| 20260902192505 | 98 | 210 | 3.0 | 10.0 | 0.00 | 0.00 | 0.00 | 44 | 1012.5 |
| 20260902192025 | 99 | 247 | 3.0 | 10.0 | 0.00 | 0.00 | 0.00 | 44 | 1012.5 |
| 20260902191505 | 99 | 248 | 3.0 | 9.0 | 0.00 | 0.00 | 0.00 | 44 | 1012.7 |
| 20260902191004 | 99 | 218 | 3.0 | 7.0 | 0.00 | 0.00 | 0.00 | 44 | 1012.7 |
| 20260902190505 | 98 | 215 | 4.0 | 9.0 | 0.00 | 0.00 | 0.00 | 45 | 1012.8 |
| 20260902190005 | 98 | 205 | 3.0 | 9.0 | 0.00 | 0.00 | 0.00 | 45 | 1012.7 |
| 20260902185506 | 97 | 169 | 3.0 | 6.0 | 0.00 | 0.00 | 0.00 | 47 | 1013.0 |
| 20260902185026 | 97 | 146 | 3.0 | 6.0 | 0.00 | 0.00 | 0.00 | 45 | 1013.2 |
| 20260902184526 | 98 | 161 | 3.0 | 8.0 | 0.00 | 0.00 | 0.00 | 44 | 1013.3 |
| 20260902184005 | 98 | 185 | 4.0 | 9.0 | 0.00 | 0.00 | 0.00 | 45 | 1013.4 |
| 20260902183505 | 97 | 208 | 4.0 | 11.0 | 0.00 | 0.00 | 0.00 | 45 | 1013.5 |
| 20260902183005 | 98 | 249 | 4.0 | 11.0 | 0.00 | 0.00 | 0.00 | 45 | 1013.6 |
| 20260902182505 | 97 | 259 | 3.0 | 9.0 | 0.00 | 0.00 | 0.00 | 47 | 1013.7 |
| 20260902182005 | 97 | 249 | 3.0 | 9.0 | 0.00 | 0.00 | 0.00 | 46 | 1013.7 |
| 20260902181505 | 98 | 229 | 5.0 | 10.0 | 0.00 | 0.00 | 0.00 | 45 | 1013.8 |
| 20260902181004 | 98 | 214 | 5.0 | 10.0 | 0.00 | 0.00 | 0.00 | 46 | 1014.0 |
| 20260902180505 | 97 | 228 | 3.0 | 8.0 | 0.00 | 0.00 | 0.00 | 48 | 1014.1 |
| 20260902180026 | 96 | 249 | 3.0 | 8.0 | 0.00 | 0.00 | 0.00 | 49 | 1014.1 |
| 20260902175504 | 95 | 243 | 3.0 | 7.0 | 0.00 | 0.00 | 0.00 | 50 | 1014.3 |
| 20260902175026 | 95 | 225 | 4.0 | 9.0 | 0.00 | 0.00 | 0.00 | 50 | 1014.3 |
| 20260902174505 | 95 | 205 | 6.0 | 10.0 | 0.00 | 0.00 | 0.00 | 49 | 1014.6 |
| 20260902174026 | 95 | 188 | 5.0 | 10.0 | 0.00 | 0.00 | 0.00 | 49 | 1014.6 |
| 20260902173505 | 95 | 167 | 3.0 | 9.0 | 0.00 | 0.00 | 0.00 | 50 | 1014.6 |
| 20260902173008 | 94 | 187 | 3.0 | 7.0 | 0.00 | 0.00 | 0.00 | 51 | 1014.6 |
| 20260902172504 | 94 | 213 | 4.0 | 9.0 | 0.00 | 0.00 | 0.00 | 51 | 1014.8 |
| 20260902172005 | 94 | 219 | 3.0 | 9.0 | 0.00 | 0.00 | 0.00 | 52 | 1014.8 |
| 20260902171505 | 93 | 189 | 3.0 | 7.0 | 0.00 | 0.00 | 0.00 | 53 | 1014.8 |
| 20260902171006 | 93 | 199 | 4.0 | 9.0 | 0.00 | 0.00 | 0.00 | 54 | 1014.8 |
| 20260902170526 | 94 | 209 | 4.0 | 9.0 | 0.00 | 0.00 | 0.00 | 52 | 1014.9 |
| 20260902170005 | 93 | 197 | 5.0 | 10.0 | 0.00 | 0.00 | 0.00 | 52 | 1014.9 |
| 20260902165505 | 92 | 192 | 6.0 | 11.0 | 0.00 | 0.00 | 0.00 | 57 | 1015.1 |
| 20260902165026 | 92 | 185 | 5.0 | 11.0 | 0.00 | 0.00 | 0.00 | 57 | 1015.1 |
| 20260902164526 | 92 | 182 | 4.0 | 10.0 | 0.00 | 0.00 | 0.00 | 59 | 1015.2 |
| 20260902164005 | 91 | 193 | 4.0 | 8.0 | 0.00 | 0.00 | 0.00 | 58 | 1015.2 |
| 20260902163505 | 91 | 200 | 4.0 | 8.0 | 0.00 | 0.00 | 0.00 | 60 | 1015.3 |
| 20260902163005 | 91 | 203 | 4.0 | 8.0 | 0.00 | 0.00 | 0.00 | 60 | 1015.3 |
| 20260902162505 | 91 | 206 | 3.0 | 8.0 | 0.00 | 0.00 | 0.00 | 61 | 1015.3 |
| 20260902162005 | 90 | 203 | 4.0 | 10.0 | 0.00 | 0.00 | 0.00 | 63 | 1015.3 |
| 20260902161505 | 90 | 214 | 5.0 | 10.0 | 0.00 | 0.00 | 0.00 | 63 | 1015.3 |
| 20260902161005 | 90 | 228 | 5.0 | 10.0 | 0.00 | 0.00 | 0.00 | 64 | 1015.4 |
| 20260902160504 | 89 | 224 | 5.0 | 10.0 | 0.00 | 0.00 | 0.00 | 65 | 1015.4 |
| 20260902160007 | 89 | 212 | 4.0 | 9.0 | 0.00 | 0.00 | 0.00 | 65 | 1015.3 |
| 20260902155506 | 89 | 236 | 5.0 | 9.0 | 0.00 | 0.00 | 0.00 | 67 | 1015.4 |
| 20260902155005 | 88 | 265 | 5.0 | 10.0 | 0.00 | 0.00 | 0.00 | 68 | 1015.3 |
| 20260902154505 | 88 | 264 | 5.0 | 10.0 | 0.00 | 0.00 | 0.00 | 68 | 1015.3 |
| 20260902154005 | 88 | 240 | 5.0 | 10.0 | 0.00 | 0.00 | 0.00 | 69 | 1015.3 |
| 20260902153505 | 88 | 230 | 5.0 | 11.0 | 0.00 | 0.00 | 0.00 | 69 | 1015.3 |
| 20260902153026 | 87 | 226 | 6.0 | 12.0 | 0.00 | 0.00 | 0.00 | 70 | 1015.2 |
| 20260902152505 | 87 | 217 | 6.0 | 12.0 | 0.00 | 0.00 | 0.00 | 73 | 1015.2 |
| 20260902152026 | 87 | 220 | 6.0 | 12.0 | 0.00 | 0.00 | 0.00 | 72 | 1015.3 |
| 20260902151505 | 87 | 230 | 6.0 | 12.0 | 0.00 | 0.00 | 0.00 | 73 | 1015.3 |
| 20260902151005 | 86 | 222 | 7.0 | 14.0 | 0.00 | 0.00 | 0.00 | 74 | 1015.3 |
| 20260902150505 | 85 | 216 | 7.0 | 14.0 | 0.00 | 0.00 | 0.00 | 75 | 1015.3 |
| 20260902150005 | 85 | 216 | 6.0 | 12.0 | 0.00 | 0.00 | 0.00 | 75 | 1015.2 |
| 20260902145505 | 85 | 218 | 5.0 | 9.0 | 0.00 | 0.00 | 0.00 | 76 | 1015.3 |
| 20260902145027 | 85 | 222 | 6.0 | 12.0 | 0.00 | 0.00 | 0.00 | 78 | 1015.4 |
| 20260902144505 | 84 | 215 | 5.0 | 12.0 | 0.00 | 0.00 | 0.00 | 78 | 1015.4 |
| 20260902144005 | 84 | 231 | 5.0 | 10.0 | 0.00 | 0.00 | 0.00 | 78 | 1015.6 |
| 20260902143505 | 84 | 238 | 4.0 | 9.0 | 0.00 | 0.00 | 0.00 | 80 | 1015.7 |
| 20260902143005 | 84 | 225 | 4.0 | 9.0 | 0.00 | 0.00 | 0.00 | 80 | 1015.6 |
| 20260902142526 | 83 | 239 | 4.0 | 9.0 | 0.00 | 0.00 | 0.00 | 81 | 1015.5 |
| 20260902142005 | 83 | 244 | 4.0 | 9.0 | 0.00 | 0.00 | 0.00 | 82 | 1015.5 |
| 20260902141504 | 83 | 233 | 4.0 | 9.0 | 0.00 | 0.00 | 0.00 | 83 | 1015.5 |
| 20260902141005 | 82 | 226 | 3.0 | 7.0 | 0.00 | 0.00 | 0.00 | 83 | 1015.5 |
| 20260902140505 | 82 | 232 | 3.0 | 10.0 | 0.00 | 0.00 | 0.00 | 85 | 1015.5 |
| 20260902140005 | 81 | 225 | 4.0 | 10.0 | 0.00 | 0.00 | 0.00 | 86 | 1015.5 |
| 20260902135505 | 81 | 216 | 4.0 | 8.0 | 0.00 | 0.00 | 0.00 | 86 | 1015.5 |
| 20260902135004 | 80 | 214 | 4.0 | 7.0 | 0.00 | 0.00 | 0.00 | 87 | 1015.6 |
| 20260902134504 | 80 | 205 | 4.0 | 9.0 | 0.00 | 0.00 | 0.00 | 87 | 1015.6 |
| 20260902134004 | 80 | 205 | 4.0 | 9.0 | 0.00 | 0.00 | 0.00 | 88 | 1015.6 |
| 20260902133504 | 79 | 212 | 3.0 | 6.0 | 0.00 | 0.00 | 0.00 | 89 | 1015.5 |
| 20260902133004 | 79 | 212 | 2.0 | 6.0 | 0.00 | 0.00 | 0.00 | 89 | 1015.4 |
| 20260902132505 | 78 | 215 | 1.0 | 4.0 | 0.00 | 0.00 | 0.00 | 90 | 1015.4 |
| 20260902132005 | 78 | 219 | 0.0 | 4.0 | 0.00 | 0.00 | 0.00 | 90 | 1015.4 |
| 20260902131525 | 77 | 248 | 0.0 | 1.0 | 0.00 | 0.00 | 0.00 | 90 | 1015.4 |
| 20260902131005 | 76 | 0 | 0.0 | 0.0 | 0.00 | 0.00 | 0.00 | 90 | 1015.4 |
| 20260902130504 | 76 | 261 | 0.0 | 1.0 | 0.00 | 0.00 | 0.00 | 90 | 1015.3 |
| 20260902130005 | 76 | 261 | 0.0 | 1.0 | 0.00 | 0.00 | 0.00 | 90 | 1015.2 |
| 20260902125504 | 76 | 0 | 0.0 | 0.0 | 0.00 | 0.00 | 0.00 | 90 | 1015.2 |
| 20260902125005 | 76 | 261 | 0.0 | 1.0 | 0.00 | 0.00 | 0.00 | 90 | 1015.1 |
| 20260902124504 | 76 | 261 | 0.0 | 1.0 | 0.00 | 0.00 | 0.00 | 90 | 1015.1 |
| 20260902124005 | 76 | 257 | 0.0 | 2.0 | 0.00 | 0.00 | 0.00 | 90 | 1015.1 |
| 20260902123505 | 76 | 266 | 1.0 | 2.0 | 0.00 | 0.00 | 0.00 | 90 | 1014.9 |
| 20260902123004 | 76 | 273 | 0.0 | 2.0 | 0.00 | 0.00 | 0.00 | 90 | 1014.9 |
| 20260902122505 | 76 | 276 | 0.0 | 1.0 | 0.00 | 0.00 | 0.00 | 90 | 1014.9 |
| 20260902122005 | 76 | 276 | 0.0 | 1.0 | 0.00 | 0.00 | 0.00 | 89 | 1014.9 |
| 20260902121505 | 76 | 276 | 0.0 | 1.0 | 0.00 | 0.00 | 0.00 | 89 | 1014.8 |
| 20260902121004 | 76 | 0 | 0.0 | 0.0 | 0.00 | 0.00 | 0.00 | 89 | 1014.8 |
| 20260902120526 | 76 | 0 | 0.0 | 0.0 | 0.00 | 0.00 | 0.00 | 89 | 1014.8 |
| 20260902120005 | 76 | 0 | 0.0 | 0.0 | 0.00 | 0.00 | 0.00 | 89 | 1014.7 |
| 20260902115505 | 76 | 0 | 0.0 | 0.0 | 0.00 | 0.00 | 0.00 | 88 | 1014.8 |
| 20260902115025 | 76 | 0 | 0.0 | 0.0 | 0.00 | 0.00 | 0.00 | 88 | 1014.7 |
| 20260902114504 | 76 | 276 | 0.0 | 1.0 | 0.00 | 0.00 | 0.00 | 88 | 1014.7 |
| 20260902114025 | 76 | 276 | 0.0 | 1.0 | 0.00 | 0.00 | 0.00 | 88 | 1014.7 |
| 20260902113505 | 76 | 276 | 0.0 | 1.0 | 0.00 | 0.00 | 0.00 | 88 | 1014.8 |
| 20260902113005 | 76 | 276 | 0.0 | 1.0 | 0.00 | 0.00 | 0.00 | 88 | 1014.7 |
| 20260902112504 | 76 | 276 | 0.0 | 1.0 | 0.00 | 0.00 | 0.00 | 88 | 1014.6 |
| 20260902112025 | 76 | 276 | 1.0 | 2.0 | 0.00 | 0.00 | 0.00 | 88 | 1014.6 |
| 20260902111505 | 76 | 276 | 1.0 | 2.0 | 0.00 | 0.00 | 0.00 | 88 | 1014.5 |
| 20260902111004 | 76 | 241 | 0.0 | 1.0 | 0.00 | 0.00 | 0.00 | 88 | 1014.5 |
| 20260902110504 | 77 | 222 | 0.0 | 1.0 | 0.00 | 0.00 | 0.00 | 88 | 1014.5 |
| 20260902110007 | 77 | 211 | 0.0 | 1.0 | 0.00 | 0.00 | 0.00 | 88 | 1014.4 |
| 20260902105504 | 76 | 211 | 0.0 | 1.0 | 0.00 | 0.00 | 0.00 | 87 | 1014.4 |
| 20260902105004 | 77 | 211 | 0.0 | 2.0 | 0.00 | 0.00 | 0.00 | 87 | 1014.3 |
| 20260902104504 | 77 | 224 | 0.0 | 2.0 | 0.00 | 0.00 | 0.00 | 87 | 1014.4 |
| 20260902104005 | 77 | 238 | 0.0 | 2.0 | 0.00 | 0.00 | 0.00 | 87 | 1014.2 |
| 20260902103504 | 77 | 248 | 0.0 | 2.0 | 0.00 | 0.00 | 0.00 | 87 | 1014.3 |
| 20260902103004 | 77 | 255 | 1.0 | 2.0 | 0.00 | 0.00 | 0.00 | 86 | 1014.3 |
| 20260902102504 | 77 | 251 | 1.0 | 2.0 | 0.00 | 0.00 | 0.00 | 86 | 1014.2 |
| 20260902102025 | 77 | 251 | 1.0 | 2.0 | 0.00 | 0.00 | 0.00 | 86 | 1014.2 |
| 20260902101505 | 77 | 257 | 0.0 | 2.0 | 0.00 | 0.00 | 0.00 | 86 | 1014.2 |
| 20260902101004 | 77 | 263 | 0.0 | 1.0 | 0.00 | 0.00 | 0.00 | 85 | 1014.4 |
| 20260902100525 | 77 | 263 | 0.0 | 1.0 | 0.00 | 0.00 | 0.00 | 85 | 1014.3 |
| 20260902100025 | 77 | 268 | 0.0 | 1.0 | 0.00 | 0.00 | 0.00 | 84 | 1014.4 |
| 20260902095505 | 77 | 275 | 0.0 | 1.0 | 0.00 | 0.00 | 0.00 | 84 | 1014.5 |
| 20260902095005 | 77 | 277 | 0.0 | 1.0 | 0.00 | 0.00 | 0.00 | 84 | 1014.4 |
| 20260902094504 | 77 | 260 | 0.0 | 2.0 | 0.00 | 0.00 | 0.00 | 83 | 1014.4 |
| 20260902094004 | 78 | 243 | 1.0 | 2.0 | 0.00 | 0.00 | 0.00 | 83 | 1014.4 |
| 20260902093525 | 78 | 227 | 0.0 | 2.0 | 0.00 | 0.00 | 0.00 | 83 | 1014.5 |
| 20260902093004 | 78 | 227 | 0.0 | 1.0 | 0.00 | 0.00 | 0.00 | 83 | 1014.5 |
| 20260902092504 | 78 | 227 | 0.0 | 1.0 | 0.00 | 0.00 | 0.00 | 83 | 1014.5 |
| 20260902092004 | 77 | 0 | 0.0 | 0.0 | 0.00 | 0.00 | 0.00 | 83 | 1014.6 |
| 20260902091504 | 77 | 227 | 0.0 | 1.0 | 0.00 | 0.00 | 0.00 | 83 | 1014.5 |
| 20260902091004 | 77 | 227 | 0.0 | 1.0 | 0.00 | 0.00 | 0.00 | 83 | 1014.6 |
| 20260902090504 | 78 | 0 | 0.0 | 0.0 | 0.00 | 0.00 | 0.00 | 82 | 1014.6 |
| 20260902090005 | 78 | 227 | 0.0 | 1.0 | 0.00 | 0.00 | 0.00 | 82 | 1014.6 |
| 20260902085506 | 78 | 227 | 0.0 | 2.0 | 0.00 | 0.00 | 0.00 | 82 | 1014.5 |
| 20260902085005 | 78 | 228 | 0.0 | 3.0 | 0.00 | 0.00 | 0.00 | 82 | 1014.5 |
| 20260902084506 | 78 | 232 | 0.0 | 3.0 | 0.00 | 0.00 | 0.00 | 81 | 1014.6 |
| 20260902084004 | 78 | 241 | 0.0 | 2.0 | 0.00 | 0.00 | 0.00 | 81 | 1014.6 |
| 20260902083505 | 78 | 250 | 0.0 | 2.0 | 0.00 | 0.00 | 0.00 | 81 | 1014.6 |
| 20260902083025 | 78 | 258 | 0.0 | 2.0 | 0.00 | 0.00 | 0.00 | 80 | 1014.6 |
| 20260902082504 | 78 | 255 | 0.0 | 2.0 | 0.00 | 0.00 | 0.00 | 80 | 1014.6 |
| 20260902082004 | 78 | 256 | 1.0 | 2.0 | 0.00 | 0.00 | 0.00 | 79 | 1014.7 |
| 20260902081506 | 78 | 262 | 0.0 | 2.0 | 0.00 | 0.00 | 0.00 | 79 | 1014.7 |
| 20260902081005 | 79 | 260 | 0.0 | 2.0 | 0.00 | 0.00 | 0.00 | 79 | 1014.8 |
| 20260902080526 | 79 | 251 | 0.0 | 2.0 | 0.00 | 0.00 | 0.00 | 79 | 1014.7 |
| 20260902080004 | 79 | 239 | 0.0 | 2.0 | 0.00 | 0.00 | 0.00 | 79 | 1014.7 |
| 20260902075504 | 79 | 225 | 0.0 | 1.0 | 0.00 | 0.00 | 0.00 | 79 | 1014.7 |
| 20260902075004 | 79 | 232 | 0.0 | 2.0 | 0.00 | 0.00 | 0.00 | 78 | 1014.6 |
| 20260902074504 | 79 | 240 | 0.0 | 2.0 | 0.00 | 0.00 | 0.00 | 78 | 1014.6 |
| 20260902074005 | 79 | 246 | 0.0 | 1.0 | 0.00 | 0.00 | 0.00 | 78 | 1014.7 |
| 20260902073504 | 79 | 0 | 0.0 | 0.0 | 0.00 | 0.00 | 0.00 | 77 | 1014.7 |
| 20260902073004 | 79 | 246 | 0.0 | 1.0 | 0.00 | 0.00 | 0.00 | 77 | 1014.8 |
| 20260902072504 | 79 | 244 | 0.0 | 2.0 | 0.00 | 0.00 | 0.00 | 77 | 1014.7 |
| 20260902072004 | 79 | 244 | 0.0 | 2.0 | 0.00 | 0.00 | 0.00 | 77 | 1014.8 |
| 20260902071505 | 79 | 0 | 0.0 | 0.0 | 0.00 | 0.00 | 0.00 | 76 | 1014.9 |
| 20260902071004 | 79 | 0 | 0.0 | 0.0 | 0.00 | 0.00 | 0.00 | 76 | 1015.0 |
| 20260902070525 | 80 | 0 | 0.0 | 0.0 | 0.00 | 0.00 | 0.00 | 76 | 1014.9 |
| 20260902070006 | 80 | 0 | 0.0 | 0.0 | 0.00 | 0.00 | 0.00 | 76 | 1014.9 |
| 20260902065505 | 80 | 0 | 0.0 | 0.0 | 0.00 | 0.00 | 0.00 | 76 | 1014.8 |
| 20260902065006 | 80 | 0 | 0.0 | 0.0 | 0.00 | 0.00 | 0.00 | 75 | 1014.8 |
| 20260902064505 | 80 | 0 | 0.0 | 0.0 | 0.00 | 0.00 | 0.00 | 75 | 1014.8 |
| 20260902064004 | 80 | 0 | 0.0 | 0.0 | 0.00 | 0.00 | 0.00 | 75 | 1014.9 |
| 20260902063505 | 80 | 0 | 0.0 | 0.0 | 0.00 | 0.00 | 0.00 | 75 | 1014.7 |
| 20260902063005 | 80 | 74 | 0.0 | 2.0 | 0.00 | 0.00 | 0.00 | 75 | 1014.7 |
| 20260902062505 | 80 | 74 | 0.0 | 2.0 | 0.00 | 0.00 | 0.00 | 75 | 1014.8 |
| 20260902062004 | 81 | 74 | 0.0 | 1.0 | 0.00 | 0.00 | 0.00 | 74 | 1014.6 |